Location: Cicognara
(44.9500°N, 10.4667°E)
Time: 07:45:08
(UTC+00:00)

Lacrosse 4 Rocket - Pass Details

Date: 27 October 2021
Orbit: 537 x 619 km, 68.0° (Epoch: 01 December)

Event Time Altitude Azimuth Distance (km) Brightness Sun altitude
Rises 17:40:42 0° 322° (NW) 2,826 5.5 -16.0°
Reaches altitude 10° 17:43:03 10° 313° (NW) 1,934 4.7 -16.4°
Maximum altitude 17:47:00 35° 248° (WSW) 985 3.2 -17.1°
Drops below altitude 10° 17:51:01 10° 183° (S) 1,958 4.2 -17.8°
Sets 17:53:25 0° 174° (S) 2,866 4.9 -18.2°
